STARLINK-34390, 64666

Orbit data source: Space-Track

STARLINK-34390, 64666 is a payload satellite owned by SpaceX/Seattle (US) in LEO that was launched on Sat, 28 Jun 2025 UTC via an FALCON 9 launch vehicle from the Air Force Eastern Test Range (AFETR). Payload-class satellites include a variety of spacecraft equipped with specific instruments for various scientific and technological missions. These include communications satellites like Starlink; space stations such as the ISS; scientific satellites like the Hubble; Earth observation satellites from companies like Planet Labs, Umbra, and HawkEye 360; GPS; miniature CubeSats for education and research; and military/defense satellites.

Loading next visibility...
Identifier
64666, 2025-139C
Orbit
LEO
Country
Flag of USUS
Related business
Manufacturer
SpaceX/Seattle
Mission
Operational Commercial Communications
Bus & Motor
STARLINK V2MO, Unknown motor
Mass
575 kg wet, ~530 kg dry
Launch date (UTC)
2025-06-28 (1 year ago)
Launch vehicle
FALCON 9
Launch site
Air Force Eastern Test Range (AFETR)
Object type
Payload
Rocket body
Debris
Shape & HBR
Box + 2 Pan, 17.7 m
Radar Cross Section
36.964 m², Large (>1 m²)

Expand to show TLE details & history
Last TLE update: 1 day ago

TLE from 1 day ago
0 STARLINK-34390
1 64666U 25139C   26170.99148981  .00022949  00000-0  68793-3 0  9995
2 64666  53.1593   9.9734 0001000 105.4356 254.6757 15.34415660 56038
Epoch: 2026-06-19T23:47Z
TLE epoch observation values (Epoch: 2026-06-19T23:47:44.719Z)
Latitude
-0.00003°
Longitude
104.82452°
Altitude
463.739 km
Speed
7.636 km/s
True Right ascension
00h 39m 53s
True Declination
0° 00' 00"
Sunlit
Object was in daylight at epoch
Visualization orbit readout
Latitude
Unknown
Longitude
Unknown
Altitude
Unknown
Speed
Unknown
Apparent Right ascension
Unknown
Apparent Declination
Unknown
Sunlit
N/A
Visualization observer readout
Local Sidereal Time
10:18:38
Azimuth
Unknown
Elevation
Unknown
Doppler factor
Unknown
Orbital elements
Apogee altitude
463.598 km
Perigee altitude
462.23 km
Semi-major axis
6,841.051 km
Eccentricity
0.0001
Inclination
53.1593°
RAAN
9.9734°
Arg. of periapsis
105.4356°
True anomaly
254.66465°
Mean anomaly
254.6757°
Eccentric anomaly
254.67017°
Mean motion
3.83583 °/min
Orbital period
93.85 mins
BSTAR
0.00068793
Loading maneuver chart data...
Computing Atmospheric mass density...
Loading historical data...
Loading historical data...
Loading historical data...
Loading historical data...
Loading historical data...
Loading historical data...
Loading historical data...

Documentation

Showing up to 5 results
|